ネオワイズ彗星

C/2019 H1 ( NEOWISE )

English version
Home page
Updated on November 9, 2019

---------------------------------------------------------------------

・ プロフィール

発見日 2019年4月18日
発見光度 18等
発見者 Near-Earth Object Wide-field Infrared Survey Explorer

・ 写真集

・ 軌道要素

Epoch 2019 Apr. 27.0 TT = JDT 2458600.5
T 2019 Apr. 27.73184 TT                                 Williams
q   1.8447354            (2000.0)            P               Q
z  +0.0043485      Peri.   19.27956     -0.09653729     -0.23286699
 +/-0.0000429      Node   269.18432     -0.99196385     -0.05737579
e   0.9919782      Incl.  104.57858     -0.08178190     +0.97081460
From 134 observations 2019 Apr. 9-July 3, mean residual 0".6.

・ 光度変化

        m1 = 14.5 + 5 logΔ + 10.0 log r

---------------------------------------------------------------------

軌道要素はM.P.E.C. 2019-Q135に掲載されたものです。
光度グラフはComet for Windowsで作成したものです。

---------------------------------------------------------------------

Copyright(C) Seiichi Yoshida (comet@aerith.net). All rights reserved.